Flag for U.S.A. Weather past 2 weeks in Aurora, Illinois, U.S.A.

Now
44 °F

Clear.


Feels Like: 44 °F
Forecast: 42 / 66 °F
Wind: No wind

Location: Dupage Airport

Current Time: Sep 17, 2014 at 8:06:50 AM

Latest Report: Sep 17, 2014 at 6:52 AM


Visibility: 10 mi

Pressure: 30.06 "Hg

Humidity: 93%

Dew point: 42 °F

Location of AuroraLocation

Historic Weather in Aurora — Graph

°F

Aurora temperature yesterday

Maximum temperature yesterday: 68 °F (at 2:52 PM)
Minimum temperature yesterday: 41 °F (at 5:52 AM)
Average temperature yesterday: 54 °F

Past Weeks' High & Low Weather Summary

 TemperatureHumidityPressure
High88 °F (Sep 5, 1:52 PM)97% (Sep 14, 6:52 AM)30.39 "Hg (Sep 14, 6:52 AM)
Low40 °F (Sep 13, 3:52 AM)33% (Sep 7, 3:52 PM)29.50 "Hg (Sep 10, 9:52 AM)
Average62 °F75%30.07 "Hg
* Reported Sep 2 6:52 AM — Sep 17 6:52 AM, Aurora, Weather by CustomWeather, © 2014

Note: Actual official high and low records may vary slightly from our data, if they occured in-between our weather recording intervals... More about our weather records

Advertising

Aurora weather history for previous 24 hours

 ConditionsComfort  
Time TempWeatherWind HumidityBarometerVisibility
6:52 AM
Sep 17
44 °FClear.No wind93%30.06 "Hg10 mi
5:52 AM43 °FClear.No wind89%30.05 "Hg10 mi
4:52 AM44 °FFog.No wind89%30.04 "Hg6 mi
3:52 AM43 °FClear.No wind89%30.06 "Hg10 mi
2:52 AM44 °FClear.No wind89%30.06 "Hg10 mi
1:52 AM45 °FClear.No wind90%30.06 "Hg10 mi
12:52 AM46 °FClear.No wind89%30.08 "Hg9 mi
11:52 PM
Sep 16
47 °FClear.No wind86%30.09 "Hg7 mi
10:52 PM48 °FClear.No wind83%30.09 "Hg6 mi
9:52 PM50 °FClear.No wind80%30.09 "Hg10 mi
8:52 PM52 °FClear.No wind77%30.10 "Hg10 mi
7:52 PM56 °FSunny.No wind62%30.10 "Hg10 mi
6:52 PM60 °FSunny.6 mph53%30.09 "Hg10 mi
5:52 PM65 °FSunny.7 mph44%30.10 "Hg10 mi
4:52 PM67 °FSunny.7 mph39%30.10 "Hg10 mi
3:52 PM67 °FSunny.8 mph39%30.11 "Hg10 mi
2:52 PM68 °FSunny.9 mph38%30.14 "Hg10 mi
1:52 PM66 °FSunny.6 mph40%30.15 "Hg10 mi
12:52 PM65 °FSunny.3 mph42%30.18 "Hg10 mi
11:52 AM64 °FSunny.8 mph45%30.19 "Hg10 mi
10:52 AM63 °FSunny.3 mph47%30.21 "Hg10 mi
9:52 AM59 °FSunny.3 mph67%30.22 "Hg10 mi
8:52 AM53 °FSunny.5 mph77%30.22 "Hg10 mi
Weather by CustomWeather, © 2014

See weather overviewHow to use our weather pages